Terminal Aerodrome Forecast
Issued by NWS

Home | Current Version | Previous Version | Text Only | Print | Product List | Glossary On
Versions: 1 2 3 4 5 6 7 8 9 10 11 12 13 14 15 16 17 18 19 20
000
FTUS45 KFGZ 251300 AAA
TAFGCN
TAF AMD
KGCN 251351Z 2514/2612 VRB02KT 4SM FU SKC
     FM251500 20008KT P6SM FEW250
     FM251800 22014G22KT P6SM FEW060 SCT250
     FM260100 21006KT P6SM SCT050 SCT250=

USA.gov is the U.S. government's official web portal to all federal, state and local government web resources and services.